sat.trackr.live / text

‹ back to catalog

SOAP

NORAD 63263 · 2025-052BF

PAYLOAD ACTIVE UNKNOWN

§ Identity

Operator
Country
FR
Launch date
2025-03-15
Launch site
AFWTR
Launch vehicle
Mass (kg)
RCS (m²)

External: N2YO · Heavens-Above · Gunter

§ Orbital elements

Epoch: 2026-05-25T05:28:45.125184Z

Period
96.21 min
Inclination
97.6882°
Eccentricity
0.0003357
Mean motion
14.96654250 rev/d
Perigee alt
574.9 km
Apogee alt
579.6 km
Semi-major
6,955.4 km
B*
2.0534e-4
RAAN
37.9412°
Arg perigee
69.1133°
Mean anomaly
291.0448°
Rev number
6,525

§ Raw data

SOAP1 63263U 25052BF  26145.22830006  .00002285  00000+0  20534-3 0  99962 63263  97.6882  37.9412 0003357  69.1133 291.0448 14.96654250 65257

JSON: /api/v1/satellites/63263 · /tle

For live sub-satellite position, see the globe view (requires WebGL).

§ Visibility from observer

Set your observer location to see the next 7 days of passes ≥ 10°. The values pass through the URL so the page stays shareable.

No JS? Fill the form by hand. The geolocation button needs JavaScript.

§ Radio — SatNOGS DB

ModeDescriptionDownlinkUplink
FM Mode S - Transmitter 2.220 GHz
FM Mode X - Transmitter 8.254 GHz

2 transmitters · refreshed weekly from db.satnogs.org